Regional Weather Roundup
Issued by NWS

Home | Current Version | Previous Version | Graphics & Text | Print | Product List | Glossary Off
Versions: 1 2 3 4 5 6 7 8 9 10 11 12 13 14 15 16 17 18 19 20 21 22 23 24 25 26 27 28 29 30 31 32 33 34 35 36 37 38 39 40 41 42 43 44 45 46 47 48 49 50

000
ASUS43 KDMX 221901
RWRIA

WEATHER ROUNDUP FOR IOWA
NATIONAL WEATHER SERVICE DES MOINES IA
200 PM CDT SAT APR 22 2017

NOTE: "FAIR" INDICATES FEW OR NO CLOUDS BELOW 12,000 FEET WITH NO
SIGNIFICANT WEATHER AND/OR OBSTRUCTIONS TO VISIBILITY.

* - THESE STATIONS ARE NOT NWS STATIONS...THUS NOT UNDER NWS
QUALITY CONTROL.  THEY ALSO DO NOT REPORT WEATHER SUCH
AS PRECIPITATION OR FOG.

IAZ001>003-012>014-020>022-031>034-043>046-222000-
   NORTHWEST IOWA

CITY           SKY/WX    TMP DP  RH WIND       PRES   REMARKS
CARROLL *      SUNNY     63  28  27 VRB7G16   30.23F
CHEROKEE *     SUNNY     64  36  35 CALM      30.24F
DENISON *      SUNNY     63  34  34 N12       30.25F
LE MARS *      SUNNY     64  34  32 W3        30.26F
ORANGE CITY *  SUNNY     63  36  36 CALM      30.25F
SHELDON *      SUNNY     63  32  31 E5        30.23F
SIOUX CITY     SUNNY     64  35  34 N7        30.25F
SPENCER        SUNNY     64  31  28 CALM      30.23F
STORM LAKE *     N/A     61  32  33 E8        30.24F
$$

IAZ055>058-069>071-079>083-090>094-222000-
   SOUTHWEST IOWA

CITY           SKY/WX    TMP DP  RH WIND       PRES   REMARKS
ATLANTIC *     CLOUDY    63  30  29 VRB7G21   30.22F
AUDUBON *      SUNNY     64  25  22 NE12      30.24F
CLARINDA *     CLOUDY    63  28  27 NE10G16   30.23S
COUNCIL BLFS * SUNNY     63  32  31 NE13G23   30.23F
CRESTON *      MOSUNNY   63  32  31 NE10G22   30.22F
HARLAN  *      SUNNY     63  28  27 NE8G20    30.26F
LAMONI         CLOUDY    62  35  36 NE15G21   30.19F
RED OAK *      PTSUNNY   64  32  29 NE16      30.22F
SHENANDOAH *   CLOUDY    64  30  27 NE18      30.22F
$$

IAZ047>049-059>061-072>074-084-222000-
   CENTRAL IOWA

CITY           SKY/WX    TMP DP  RH WIND       PRES   REMARKS
AMES           SUNNY     65  30  27 NE9G16    30.21F
ANKENY *       SUNNY     63  28  27 NE12G20   30.22F
BOONE *        SUNNY     63  30  29 E13       30.21F
CHARITON *     CLOUDY    59  32  36 N10       30.19F
DES MOINES     PTSUNNY   65  28  24 NE10G17   30.21F
GRINNELL*      SUNNY     62  23  22 NE10G20   30.22F
KNOXVILLE *    CLOUDY    63  25  23 E9G18     30.19F
MARSHALLTOWN   SUNNY     63  28  26 NE12      30.21F
NEWTON *       SUNNY     63  28  27 E13G20    30.20F
PELLA *        CLOUDY    63  24  22 E8        30.21F
PERRY *          N/A     64  24  21 N7G18     30.22F
$$

IAZ004>006-015-016-023>025-035-036-222000-
   NORTH CENTRAL IOWA

CITY           SKY/WX    TMP DP  RH WIND       PRES   REMARKS
ALGONA *       SUNNY     63  34  34 VRB5G12   30.23F
CLARION *      SUNNY     63  28  27 N10       30.22F
ESTHERVILLE    SUNNY     63  34  33 VRB3      30.22F
FORT DODGE *   SUNNY     64  34  32 NW9       30.23F
MASON CITY     SUNNY     64  29  26 NE8       30.23F
FOREST CITY *    N/A     66  32  28 NW3       30.22F
WEBSTER CITY * SUNNY     63  30  29 VRB3      30.20F
IOWA FALLS *     N/A     62  29  28 N7        30.23F
$$

IAZ007>011-017>019-026>030-037>042-050>054-066-222000-
   NORTHEAST IOWA

CITY           SKY/WX    TMP DP  RH WIND       PRES   REMARKS
CEDAR RAPIDS   SUNNY     62  29  28 NE8G18    30.20F
CHARLES CITY * SUNNY     63  27  25 N9        30.22F
CLINTON *      SUNNY     60  35  39 N12       30.20F
DECORAH *      SUNNY     61  28  29 N8        30.20F
DUBUQUE        SUNNY     60  30  32 VRB6      30.21F
MONTICELLO *   SUNNY     61  30  31 VRB3      30.20F
OELWEIN *      SUNNY     61  28  29 VRB5G14   30.22F
WATERLOO       SUNNY     63  29  27 VRB5      30.21F
$$

IAZ064-065-067-068-078-222000-
   EAST CENTRAL IOWA

CITY           SKY/WX    TMP DP  RH WIND       PRES   REMARKS
DAVENPORT      SUNNY     61  34  36 NE9       30.20F
IOWA CITY      SUNNY     64  33  31 N16G29    30.21F
MUSCATINE *    SUNNY     63  32  31 NE9G17    30.19F
QUAD CITIES    SUNNY     62  34  35 E10       30.19F
$$

IAZ062-063-075>077-085>089-095>099-222000-
   SOUTHEAST IOWA

CITY           SKY/WX    TMP DP  RH WIND       PRES   REMARKS
BURLINGTON     SUNNY     61  38  42 NE16G22   30.15F
FAIRFIELD *    SUNNY     61  30  31 NE16      30.18F
FORT MADISON * CLOUDY    63  37  39 NE15      30.17F
KEOKUK *       SUNNY     61  36  39 NE16G22   30.14F
OSKALOOSA *      N/A     62  28  28 E12G22    30.19F
CENTERVILLE *    N/A     63  28  27 NE13G24   30.18F
OTTUMWA        MOSUNNY   61  26  26 NE17G26   30.18F
WASHINGTON *   SUNNY     63  30  29 E14G22    30.19F
$$

ABBREVIATIONS USED IN REMARKS
   TC - TEMPERATURES IN CELSIUS
  WCI - WIND CHILL INDEX
   HX - HEAT INDEX
  VSB - VISIBILITY
$$





USA.gov is the U.S. government's official web portal to all federal, state and local government web resources and services.